Weather History for Crookston, MN

Change the Weather History Date:

Thursday, May 9, 2013

  Actual Average Record
Temperature  
Mean Temperature 50 °F -  
Max Temperature 62 °F 59 °F 84 °F (2007)
Min Temperature 37 °F 37 °F 26 °F (1997)
Degree Days  
Heating Degree Days 16    
Moisture  
Dew Point 30 °F    
Average Humidity 49    
Maximum Humidity 76    
Minimum Humidity 23    
Precipitation  
Precipitation 0.00 in - - ()
Sea Level Pressure  
Sea Level Pressure 30.18 in    
Wind  
Wind Speed 11 mph (NE)    
Max Wind Speed 17 mph    
Max Gust Speed 24 mph    
Visibility 10 miles    
Events      
Averages and records for this station are not official NWS values.
T = Trace of Precipitation, MM = Missing Value Source: NWS Daily Summary

Daily Weather History Graph

Daily Weather History Graph

Search for Another Location

Airport:

Trip Planner

Search our weather history database for the weather conditions in past years. The results will help you decide how hot, cold, wet, or windy it might be!

Date:

Astronomy

May. 09, 2013 Rise Set
Actual Time 5:56 AM CDT 8:50 PM CDT
Civil Twilight 5:20 AM CDT 9:26 PM CDT
Nautical Twilight 4:34 AM CDT 10:13 PM CDT
Astronomical Twilight 3:38 AM CDT 11:09 PM CDT
Moon 5:43 AM CDT (5/9) 8:46 PM CDT (5/9)
Length of Visible Light 16h 06m
Length of Day
14h 54m
Waning Crescent, 0% of the Moon is Illuminated
May 9
Waning Crescent
May 9
New
May 17
First Quarter
May 24
Full
May 31
Last Quarter

Hourly Weather History & Observations

Time (CDT) Temp. Windchill Dew Point Humidity Pressure Visibility Wind Dir Wind Speed Gust Speed Precip Events Conditions
12:14 AM 46.4 °F 41.5 °F 35.6 °F 66% 30.14 in 10.0 mi NNE 10.4 mph - N/A   Clear
12:34 AM 44.6 °F 39.7 °F 35.6 °F 71% 30.14 in 10.0 mi North 9.2 mph - N/A   Clear
12:55 AM 44.6 °F 40.2 °F 35.6 °F 71% 30.15 in 10.0 mi NNE 8.1 mph - N/A   Clear
1:14 AM 44.6 °F 39.7 °F 35.6 °F 71% 30.15 in 10.0 mi NNE 9.2 mph - N/A   Clear
1:34 AM 44.6 °F 38.8 °F 35.6 °F 71% 30.15 in 10.0 mi NNE 11.5 mph - N/A   Clear
1:55 AM 42.8 °F 37.0 °F 33.8 °F 70% 30.15 in 10.0 mi NNE 10.4 mph - N/A   Clear
2:14 AM 42.8 °F 37.0 °F 33.8 °F 70% 30.15 in 10.0 mi NNE 10.4 mph - N/A   Clear
2:34 AM 42.8 °F 37.0 °F 33.8 °F 70% 30.15 in 10.0 mi NNE 10.4 mph - N/A   Clear
2:55 AM 41.0 °F 35.2 °F 33.8 °F 76% 30.15 in 10.0 mi North 9.2 mph - N/A   Clear
3:14 AM 41.0 °F 34.7 °F 33.8 °F 76% 30.15 in 10.0 mi North 10.4 mph - N/A   Clear
3:34 AM 41.0 °F 34.3 °F 33.8 °F 76% 30.16 in 10.0 mi North 11.5 mph - N/A   Clear
3:55 AM 39.2 °F 32.0 °F 32.0 °F 75% 30.16 in 10.0 mi North 11.5 mph - N/A   Clear
4:14 AM 39.2 °F 32.0 °F 32.0 °F 75% 30.16 in 10.0 mi North 11.5 mph - N/A   Clear
4:34 AM 39.2 °F 33.0 °F 32.0 °F 75% 30.17 in 10.0 mi North 9.2 mph - N/A   Clear
4:55 AM 39.2 °F 33.0 °F 30.2 °F 70% 30.17 in 10.0 mi North 9.2 mph - N/A   Clear
5:14 AM 37.4 °F 31.4 °F 30.2 °F 75% 30.18 in 10.0 mi NNE 8.1 mph - N/A   Clear
5:35 AM 37.4 °F 30.8 °F 30.2 °F 75% 30.19 in 10.0 mi NNE 9.2 mph - N/A   Clear
5:55 AM 37.4 °F 30.3 °F 28.4 °F 70% 30.19 in 10.0 mi NNE 10.4 mph - N/A   Clear
6:14 AM 37.4 °F 30.8 °F 28.4 °F 70% 30.20 in 10.0 mi NNE 9.2 mph - N/A   Clear
6:35 AM 37.4 °F 30.8 °F 28.4 °F 70% 30.20 in 10.0 mi NNE 9.2 mph - N/A   Clear
6:55 AM 37.4 °F 31.4 °F 28.4 °F 70% 30.21 in 10.0 mi NNE 8.1 mph - N/A   Clear
7:14 AM 39.2 °F 33.6 °F 30.2 °F 70% 30.22 in 10.0 mi NNE 8.1 mph - N/A   Clear
7:35 AM 41.0 °F 34.3 °F 28.4 °F 61% 30.22 in 10.0 mi NE 11.5 mph - N/A   Clear
7:55 AM 42.8 °F 35.8 °F 30.2 °F 61% 30.22 in 10.0 mi NE 13.8 mph 17.3 mph N/A   Clear
8:14 AM 44.6 °F 38.4 °F 30.2 °F 57% 30.22 in 10.0 mi NE 12.7 mph 17.3 mph N/A   Clear
8:35 AM 46.4 °F 40.7 °F 30.2 °F 53% 30.22 in 10.0 mi NE 12.7 mph 18.4 mph N/A   Clear
8:54 AM 48.2 °F - 30.2 °F 50% 30.23 in 10.0 mi NE 13.8 mph 18.4 mph N/A   Clear
9:14 AM 48.2 °F - 32.0 °F 54% 30.23 in 10.0 mi NE 12.7 mph - N/A   Clear
9:35 AM 51.8 °F - 32.0 °F 47% 30.23 in 10.0 mi NE 15.0 mph 20.7 mph N/A   Clear
9:54 AM 51.8 °F - 32.0 °F 47% 30.22 in 10.0 mi NE 16.1 mph 19.6 mph N/A   Clear
10:35 AM 53.6 °F - 30.2 °F 41% 30.22 in 10.0 mi ENE 17.3 mph 23.0 mph N/A   Clear
10:54 AM 53.6 °F - 30.2 °F 41% 30.23 in 10.0 mi NE 13.8 mph 23.0 mph N/A   Clear
11:14 AM 55.4 °F - 28.4 °F 36% 30.23 in 10.0 mi NE 16.1 mph 21.9 mph N/A   Clear
11:35 AM 55.4 °F - 28.4 °F 36% 30.23 in 10.0 mi NE 16.1 mph 20.7 mph N/A   Clear
12:14 PM 57.2 °F - 28.4 °F 33% 30.23 in 10.0 mi ENE 13.8 mph 21.9 mph N/A   Clear
12:35 PM 57.2 °F - 28.4 °F 33% 30.22 in 10.0 mi ENE 16.1 mph 19.6 mph N/A   Clear
12:54 PM 59.0 °F - 28.4 °F 31% 30.22 in 10.0 mi NE 10.4 mph 18.4 mph N/A   Clear
1:14 PM 59.0 °F - 28.4 °F 31% 30.21 in 10.0 mi NE 10.4 mph 23.0 mph N/A   Clear
1:35 PM 59.0 °F - 26.6 °F 29% 30.21 in 10.0 mi NE 11.5 mph 19.6 mph N/A   Clear
1:54 PM 60.8 °F - 24.8 °F 25% 30.20 in 10.0 mi ENE 11.5 mph - N/A   Clear
2:15 PM 60.8 °F - 26.6 °F 27% 30.19 in 10.0 mi East 16.1 mph 23.0 mph N/A   Clear
2:35 PM 60.8 °F - 23.0 °F 23% 30.20 in 10.0 mi ENE 13.8 mph 24.2 mph N/A   Clear
2:54 PM 62.6 °F - 24.8 °F 24% 30.19 in 10.0 mi NE 13.8 mph 20.7 mph N/A   Clear
3:15 PM 60.8 °F - 23.0 °F 23% 30.19 in 10.0 mi NE 12.7 mph 21.9 mph N/A   Clear
3:35 PM 62.6 °F - 24.8 °F 24% 30.18 in 10.0 mi ENE 12.7 mph 21.9 mph N/A   Clear
3:54 PM 62.6 °F - 24.8 °F 24% 30.18 in 10.0 mi ENE 13.8 mph 20.7 mph N/A   Clear
4:15 PM 62.6 °F - 26.6 °F 26% 30.17 in 10.0 mi ENE 12.7 mph 18.4 mph N/A   Clear
4:34 PM 62.6 °F - 24.8 °F 24% 30.17 in 10.0 mi NE 12.7 mph 20.7 mph N/A   Clear
4:54 PM 62.6 °F - 26.6 °F 26% 30.16 in 10.0 mi ENE 9.2 mph 21.9 mph N/A   Clear
5:15 PM 62.6 °F - 26.6 °F 26% 30.15 in 10.0 mi NE 12.7 mph 18.4 mph N/A   Clear
5:34 PM 62.6 °F - 26.6 °F 26% 30.15 in 10.0 mi ENE 12.7 mph 19.6 mph N/A   Clear
5:54 PM 62.6 °F - 26.6 °F 26% 30.15 in 10.0 mi NE 13.8 mph - N/A   Clear
6:15 PM 62.6 °F - 28.4 °F 27% 30.15 in 10.0 mi NE 11.5 mph - N/A   Clear
6:34 PM 62.6 °F - 28.4 °F 27% 30.15 in 10.0 mi ENE 15.0 mph - N/A   Clear
6:54 PM 60.8 °F - 28.4 °F 29% 30.15 in 10.0 mi ENE 10.4 mph - N/A   Clear
7:15 PM 60.8 °F - 28.4 °F 29% 30.15 in 10.0 mi NE 13.8 mph 17.3 mph N/A   Clear
7:34 PM 60.8 °F - 28.4 °F 29% 30.15 in 10.0 mi ENE 12.7 mph - N/A   Clear
7:54 PM 59.0 °F - 30.2 °F 34% 30.15 in 10.0 mi NE 9.2 mph - N/A   Clear
8:15 PM 57.2 °F - 30.2 °F 36% 30.16 in 10.0 mi NE 9.2 mph - N/A   Clear
8:34 PM 55.4 °F - 30.2 °F 38% 30.16 in 10.0 mi ENE 9.2 mph - N/A   Clear
8:54 PM 53.6 °F - 32.0 °F 44% 30.17 in 10.0 mi NE 8.1 mph - N/A   Clear
9:14 PM 51.8 °F - 32.0 °F 47% 30.17 in 10.0 mi NE 6.9 mph - N/A   Clear
9:34 PM 50.0 °F - 32.0 °F 50% 30.18 in 10.0 mi NE 6.9 mph - N/A   Clear
9:55 PM 48.2 °F - 33.8 °F 58% 30.18 in 10.0 mi NE 6.9 mph - N/A   Clear
10:14 PM 46.4 °F 41.9 °F 32.0 °F 57% 30.19 in 10.0 mi NE 9.2 mph - N/A   Clear
10:55 PM 46.4 °F 42.4 °F 32.0 °F 57% 30.19 in 10.0 mi ENE 8.1 mph - N/A   Clear
11:14 PM 46.4 °F 41.9 °F 30.2 °F 53% 30.19 in 10.0 mi ENE 9.2 mph - N/A   Clear
11:35 PM 46.4 °F 42.4 °F 28.4 °F 50% 30.19 in 10.0 mi ENE 8.1 mph - N/A   Clear